| time (UTC) | temp F | wind direction | speed knots | gust knots | rain 1hr in | rain 24hr in | rain mn in | humidity % | barometer mb |
| 20260902090501 | 73 | 2.6 | 0.0 | 0.00 | 0.00 | 0.00 | 61 | 1021.0 | |
| 20260902083501 | 72 | 260 | 4.3 | 0.0 | 0.00 | 0.00 | 0.00 | 65 | 1021.0 |
| 20260902080502 | 70 | 1.7 | 0.0 | 0.00 | 0.00 | 0.00 | 69 | 1021.0 | |
| 20260902073502 | 68 | 310 | 2.6 | 0.0 | 0.00 | 0.00 | 0.00 | 73 | 1021.0 |
| 20260902070502 | 68 | 280 | 5.2 | 0.0 | 0.00 | 0.00 | 0.00 | 73 | 1021.0 |
| 20260902063503 | 66 | 250 | 5.2 | 0.0 | 0.00 | 0.00 | 0.00 | 78 | 1021.0 |
| 20260902060503 | 64 | 250 | 4.3 | 0.0 | 0.00 | 0.00 | 0.00 | 83 | 1020.0 |
| 20260902053502 | 63 | 230 | 5.2 | 0.0 | 0.00 | 0.00 | 0.00 | 83 | 1020.0 |
| 20260902050502 | 61 | 240 | 2.6 | 0.0 | 0.00 | 0.00 | 0.00 | 88 | 1020.0 |
| 20260902043502 | 61 | 230 | 4.3 | 0.0 | 0.00 | 0.00 | 0.00 | 88 | 1020.0 |
| 20260902040502 | 61 | 0.9 | 0.0 | 0.00 | 0.00 | 0.00 | 88 | 1020.0 | |
| 20260902033502 | 59 | 280 | 5.2 | 0.0 | 0.00 | 0.00 | 0.00 | 88 | 1020.0 |
| 20260902030502 | 59 | 280 | 4.3 | 0.0 | 0.00 | 0.00 | 0.00 | 88 | 1020.0 |
| 20260902023503 | 57 | 2.6 | 0.0 | 0.00 | 0.00 | 0.00 | 94 | 1020.0 | |
| 20260902020501 | 59 | 250 | 2.6 | 0.0 | 0.00 | 0.00 | 0.00 | 88 | 1020.0 |
| 20260902013502 | 61 | 270 | 4.3 | 0.0 | 0.00 | 0.00 | 0.00 | 88 | 1019.0 |
| 20260902010502 | 61 | 1.7 | 0.0 | 0.00 | 0.00 | 0.00 | 88 | 1019.0 | |
| 20260902003503 | 61 | 230 | 1.7 | 0.0 | 0.00 | 0.00 | 0.00 | 88 | 1019.0 |
| 20260902000503 | 61 | 230 | 5.2 | 0.0 | 0.00 | 0.00 | 0.00 | 88 | 1019.0 |
| 20260901233502 | 61 | 1.7 | 0.0 | 0.00 | 0.00 | 0.00 | 88 | 1019.0 | |
| 20260901230502 | 64 | 1.7 | 0.0 | 0.00 | 0.00 | 0.00 | 73 | 1019.0 | |
| 20260901223502 | 64 | 280 | 4.3 | 0.0 | 0.00 | 0.00 | 0.00 | 78 | 1019.0 |
| 20260901220502 | 63 | 260 | 6.1 | 0.0 | 0.00 | 0.00 | 0.00 | 83 | 1019.0 |
| 20260901213502 | 64 | 310 | 4.3 | 0.0 | 0.00 | 0.00 | 0.00 | 78 | 1019.0 |
| 20260901210504 | 64 | 310 | 4.3 | 0.0 | 0.00 | 0.00 | 0.00 | 78 | 1019.0 |
| 20260901203502 | 66 | 300 | 6.1 | 0.0 | 0.00 | 0.00 | 0.00 | 73 | 1019.0 |
| 20260901200502 | 64 | 280 | 6.1 | 0.0 | 0.00 | 0.00 | 0.00 | 83 | 1019.0 |
| 20260901193502 | 66 | 300 | 5.2 | 0.0 | 0.00 | 0.00 | 0.00 | 78 | 1019.0 |
| 20260901190502 | 66 | 270 | 4.3 | 0.0 | 0.00 | 0.00 | 0.00 | 78 | 1019.0 |
| 20260901183502 | 68 | 290 | 2.6 | 0.0 | 0.00 | 0.00 | 0.00 | 69 | 1018.0 |
| 20260901180502 | 70 | 270 | 4.3 | 0.0 | 0.00 | 0.00 | 0.00 | 69 | 1018.0 |
| 20260901173503 | 70 | 300 | 4.3 | 0.0 | 0.00 | 0.00 | 0.00 | 69 | 1018.0 |
| 20260901170502 | 72 | 300 | 4.3 | 0.0 | 0.00 | 0.00 | 0.00 | 65 | 1018.0 |
| 20260901163502 | 72 | 310 | 4.3 | 0.0 | 0.00 | 0.00 | 0.00 | 65 | 1017.0 |
| 20260901160502 | 73 | 300 | 6.1 | 0.0 | 0.00 | 0.00 | 0.00 | 57 | 1017.0 |
| 20260901153503 | 73 | 300 | 7.0 | 0.0 | 0.00 | 0.00 | 0.00 | 61 | 1017.0 |
| 20260901150502 | 75 | 310 | 9.6 | 0.0 | 0.00 | 0.00 | 0.00 | 54 | 1017.0 |
| 20260901143503 | 75 | 310 | 8.7 | 0.0 | 0.00 | 0.00 | 0.00 | 57 | 1017.0 |
| 20260901140502 | 77 | 300 | 9.6 | 0.0 | 0.00 | 0.00 | 0.00 | ||
| 20260901133502 | 79 | 310 | 11.3 | 0.0 | 0.00 | 0.00 | 0.00 | 51 | 1017.0 |
| 20260901130502 | 75 | 300 | 9.6 | 0.0 | 0.00 | 0.00 | 0.00 | 54 | 1017.0 |
| 20260901123503 | 77 | 310 | 7.0 | 0.0 | 0.00 | 0.00 | 0.00 | 51 | 1017.0 |
| 20260901120503 | 79 | 270 | 7.8 | 0.0 | 0.00 | 0.00 | 0.00 | 48 | 1017.0 |
| 20260901113502 | 79 | 270 | 5.2 | 0.0 | 0.00 | 0.00 | 0.00 | 48 | 1016.0 |
| 20260901110502 | 79 | 270 | 6.1 | 0.0 | 0.00 | 0.00 | 0.00 | 45 | 1016.0 |
| 20260901103502 | 79 | 260 | 6.1 | 0.0 | 0.00 | 0.00 | 0.00 | 42 | 1016.0 |
| 20260901100502 | 81 | 220 | 6.1 | 0.0 | 0.00 | 0.00 | 0.00 | 39 | 1016.0 |
| 20260901093502 | 79 | 210 | 4.3 | 0.0 | 0.00 | 0.00 | 0.00 | 39 | 1016.0 |